User: anonymous   Login
Location: Fort Wayne
(41.1310°N, 85.1290°W)
Time: 19:54:49
(UTC-04:00)
Language:

Meteor 2-10 Rocket - Orbit

View from above orbital plane
View from above orbital plane
View from above satellite
View from above satellite

Ground track
Ground track

The orbit data is extracted from the following two-line orbital elements,

1 14453U 83109B   17082.91606496 +.00000036 +00000-0 +10081-4 0  9990
2 14453 081.1692 192.0827 0104086 310.7134 048.5037 14.24669427735314
Epoch (UTC): 23 March 2017 21:59:08
Eccentricity: 0.0104086
inclination: 81.1692°
perigee height: 735 km
apogee height: 884 km
right ascension of ascending node: 192.0827°
argument of perigee: 310.7134°
revolutions per day: 14.24669427
mean anomaly at epoch: 48.5037°
orbit number at epoch: 73531

The dashed part of the orbit path shows where the satellite is in the earth's shadow,  

DLR